GAOFEN 11 (43585 NORAD) Tracking and Keplerian Element Data

This shows tracking and keplerian element data for the satellite.

Feedback or suggestion? Click here.




ElementValue
Catalog43585
NameGAOFEN 11
Epoch Orbit455
Epoch Day241.92553179
Epoch Year2018
RAAN311.1653
Inclination97.4298
Eccentricity0.0315846
Argument of Perigee65.9708
Mean Anonmoly28.2105
Mean Motion15.36550912
Decay Rate0.00071525
L11 43585U 18063A 18241.92553179 .00071525 29707-5 33125-3 0 9997
L22 43585 97.4298 311.1653 0315846 65.9708 28.2105 15.36550912 4557

Live tracking and technical data element details for GAOFEN 11 (NORAD 43585). GAOFEN 11 can be tracked NOW for your location showing map with azimuth and elevation plus other details from your city location.

Track the satellite on the map from your city or location and see movement details for azimuth, elevation, latitude, longitude, range, height, and movement on the map or in text.







IsCatalogInMostPopularTable: catalog: 43585, numindb: 41
Update: records affected: 1



GetName: 43585 GAOFEN 11

Hit Count: updated at: Sat, 17 Nov 2018 03:27:59 GMT